K2NV Weather Reports


time (UTC)temp
F
wind
direction
speed
knots
gust
knots
rain 1hr
in
rain 24hr
in
rain mn
in
humidity
%
barometer
mb
20260509212416 60 202 2.6 5.2 0.00 0.00 0.00 74 1001.9
20260509211917 60 200 4.3 5.2 0.00 0.00 0.00 74 1001.9
20260509211418 60 210 5.2 7.0 0.00 0.00 0.00 74 1001.9
20260509210916 60 215 5.2 7.0 0.00 0.00 0.00 74 1002.0
20260509210417 60 213 4.3 5.2 0.00 0.00 0.00 73 1002.1
20260509205918 60 195 2.6 6.1 0.00 0.00 0.00 73 1002.1
20260509205417 60 220 2.6 5.2 0.00 0.00 0.00 72 1002.3
20260509204918 61 219 2.6 7.0 0.00 0.00 0.00 72 1002.3
20260509204416 61 234 2.6 5.2 0.00 0.00 0.00 72 1002.4
20260509203918 61 219 5.2 7.8 0.00 0.00 0.00 71 1002.4
20260509203417 61 206 5.2 7.8 0.00 0.00 0.00 71 1002.4
20260509202917 61 202 6.1 7.0 0.00 0.00 0.00 70 1002.5
20260509202416 61 226 6.1 10.4 0.00 0.00 0.00 70 1002.6
20260509201917 61 230 4.3 7.8 0.00 0.00 0.00 70 1002.6
20260509201416 61 214 4.3 7.0 0.00 0.00 0.00 69 1002.5
20260509200917 62 223 6.1 10.4 0.00 0.00 0.00 68 1002.7
20260509200420 62 221 7.0 8.7 0.00 0.00 0.00 67 1002.7
20260509195917 62 221 7.8 10.4 0.00 0.00 0.00 66 1002.6
20260509195418 63 220 6.1 7.8 0.00 0.00 0.00 67 1002.7
20260509194917 64 232 7.0 12.2 0.00 0.00 0.00 66 1002.8
20260509194417 64 230 7.0 8.7 0.00 0.00 0.00 68 1002.8
20260509193918 64 229 11.3 12.2 0.00 0.00 0.00 68 1002.8
20260509193416 63 216 7.0 10.4 0.00 0.00 0.00 68 1002.9
20260509192917 63 217 8.7 12.2 0.00 0.00 0.00 68 1002.8
20260509192418 63 205 8.7 15.6 0.00 0.00 0.00 69 1002.8
20260509191917 62 244 7.0 13.9 0.00 0.00 0.00 69 1002.9
20260509191416 63 227 11.3 15.6 0.00 0.00 0.00 67 1003.4
20260509190917 63 220 8.7 13.0 0.00 0.00 0.00 66 1003.5
20260509190417 64 216 8.7 13.0 0.00 0.00 0.00 69 1003.4
20260509185918 63 225 11.3 13.0 0.00 0.00 0.00 69 1003.6
20260509185417 63 222 10.4 15.6 0.00 0.00 0.00 69 1003.5
20260509184917 63 223 11.3 14.8 0.00 0.00 0.00 70 1003.6
20260509184416 63 205 6.1 10.4 0.00 0.00 0.00 71 1003.5
20260509183918 62 204 8.7 13.0 0.00 0.00 0.00 70 1003.7
20260509183417 63 234 7.0 10.4 0.00 0.00 0.00 69 1003.7
20260509182916 63 205 10.4 13.0 0.00 0.00 0.00 70 1003.8
20260509182418 63 214 10.4 17.4 0.00 0.00 0.00 68 1003.8
20260509181920 63 206 8.7 13.9 0.00 0.00 0.00 70 1003.8
20260509181417 63 202 8.7 11.3 0.00 0.00 0.00 70 1003.7
20260509180918 63 201 8.7 10.4 0.00 0.00 0.00 70 1003.7
20260509180418 62 209 10.4 13.9 0.00 0.00 0.00 69 1003.8
20260509175917 62 228 7.0 11.3 0.00 0.00 0.00 69 1003.8
20260509175416 62 220 8.7 12.2 0.00 0.00 0.00 68 1004.0
20260509174917 62 216 8.7 11.3 0.00 0.00 0.00 69 1003.9
20260509174416 62 195 7.8 12.2 0.00 0.00 0.00 72 1004.0
20260509173917 61 221 8.7 13.0 0.00 0.00 0.00 72 1004.1
20260509173417 61 230 7.0 7.8 0.00 0.00 0.00 71 1004.2
20260509172917 60 245 7.8 12.2 0.00 0.00 0.00 72 1004.3
20260509172416 60 243 5.2 15.6 0.00 0.00 0.00 73 1004.5
20260509171917 60 227 7.0 10.4 0.00 0.00 0.00 72 1004.7
20260509171418 60 215 5.2 7.8 0.00 0.00 0.00 75 1004.7
20260509170917 60 240 7.0 10.4 0.00 0.00 0.00 74 1004.8
20260509170416 60 251 8.7 15.6 0.00 0.00 0.00 74 1004.8
20260509165917 60 235 6.1 10.4 0.00 0.00 0.00 76 1004.7
20260509165417 59 219 7.0 11.3 0.00 0.00 0.00 76 1004.7
20260509164916 59 227 6.1 10.4 0.00 0.00 0.00 76 1004.8
20260509164418 59 206 7.0 8.7 0.00 0.00 0.00 75 1004.8
20260509163917 59 236 6.1 7.0 0.00 0.00 0.00 74 1004.9
20260509163416 59 200 8.7 11.3 0.00 0.00 0.00 75 1004.9
20260509162917 59 215 6.1 10.4 0.00 0.00 0.00 75 1005.0
20260509162418 59 233 7.0 10.4 0.00 0.00 0.00 74 1005.1
20260509161917 59 212 7.0 10.4 0.00 0.00 0.00 76 1005.2
20260509161416 59 212 6.1 7.8 0.00 0.00 0.00 76 1005.3
20260509160918 58 215 6.1 8.7 0.00 0.00 0.00 75 1005.3
20260509160417 58 211 7.0 10.4 0.00 0.00 0.00 76 1005.3
20260509155916 58 201 7.8 11.3 0.00 0.00 0.00 75 1005.3
20260509155417 58 204 6.1 11.3 0.00 0.00 0.00 75 1005.3
20260509154917 58 211 7.0 10.4 0.00 0.00 0.00 76 1005.2
20260509154416 58 213 7.0 8.7 0.00 0.00 0.00 76 1005.2
20260509153918 58 206 7.8 10.4 0.00 0.00 0.00 75 1005.2
20260509153416 58 196 7.8 11.3 0.00 0.00 0.00 76 1005.2
20260509152918 59 203 8.7 10.4 0.00 0.00 0.00 75 1005.3
20260509152416 59 228 5.2 7.8 0.00 0.00 0.00 75 1005.3
20260509151919 59 228 6.1 8.7 0.00 0.00 0.00 75 1005.3
20260509151416 59 199 7.8 13.0 0.00 0.00 0.00 75 1005.2
20260509150917 59 192 7.8 10.4 0.00 0.00 0.00 76 1005.2
20260509150418 59 185 7.0 8.7 0.00 0.00 0.00 77 1005.3
20260509145916 58 232 5.2 7.8 0.00 0.00 0.00 78 1005.3
20260509145417 58 210 5.2 10.4 0.00 0.00 0.00 78 1005.3
20260509144917 57 212 6.1 8.7 0.00 0.00 0.00 79 1005.3
20260509144416 57 210 5.2 7.0 0.00 0.00 0.00 80 1005.3
20260509143417 56 203 4.3 7.0 0.00 0.00 0.00 81 1005.4
20260509142918 56 209 5.2 6.1 0.00 0.00 0.00 81 1005.4
20260509142418 56 203 5.2 7.0 0.00 0.00 0.00 81 1005.4
20260509141917 56 212 6.1 7.8 0.00 0.00 0.00 81 1005.5
20260509141417 56 198 6.1 8.7 0.00 0.00 0.00 81 1005.5
20260509140916 56 196 6.1 10.4 0.00 0.00 0.00 81 1005.5
20260509140418 56 193 5.2 7.8 0.00 0.00 0.00 81 1005.5
20260509135920 56 194 5.2 8.7 0.00 0.00 0.00 81 1005.6
20260509135417 56 201 6.1 7.8 0.00 0.00 0.00 82 1005.7
20260509134918 55 201 6.1 7.8 0.00 0.00 0.00 82 1005.7
20260509134417 55 197 6.1 10.4 0.00 0.00 0.00 82 1005.8
20260509133917 55 194 5.2 7.0 0.00 0.00 0.00 83 1005.9
20260509133417 55 206 5.2 7.8 0.00 0.00 0.00 83 1006.0
20260509132916 55 191 4.3 6.1 0.00 0.00 0.00 82 1005.9
20260509132418 55 192 5.2 7.0 0.00 0.00 0.00 82 1005.9
20260509131918 55 196 5.2 10.4 0.00 0.00 0.00 83 1005.9
20260509131417 55 204 6.1 7.8 0.00 0.00 0.00 83 1005.9
20260509130917 54 188 6.1 8.7 0.00 0.00 0.00 83 1006.0
20260509130416 54 187 5.2 10.4 0.00 0.00 0.00 84 1006.0
20260509125918 54 194 5.2 10.4 0.00 0.00 0.00 84 1005.9
20260509125417 54 203 6.1 7.0 0.00 0.00 0.00 85 1005.9
20260509124917 53 175 5.2 7.8 0.00 0.00 0.00 85 1005.9
20260509124416 53 192 5.2 7.0 0.00 0.00 0.00 86 1005.9
20260509123918 53 187 4.3 6.1 0.00 0.00 0.00 86 1005.9
20260509123417 52 190 5.2 7.8 0.00 0.00 0.00 87 1006.0
20260509122916 52 191 1.7 4.3 0.00 0.00 0.00 87 1006.0
20260509122417 52 165 1.7 2.6 0.00 0.00 0.00 87 1006.1
20260509121917 52 185 5.2 6.1 0.00 0.00 0.00 88 1006.2
20260509121417 51 189 2.6 7.0 0.00 0.00 0.00 88 1006.3
20260509120917 51 166 2.6 4.3 0.00 0.00 0.00 88 1006.3
20260509120418 51 173 5.2 8.7 0.00 0.00 0.00 89 1006.3
20260509115918 51 191 4.3 8.7 0.00 0.00 0.00 89 1006.2
20260509115416 50 168 2.6 2.6 0.00 0.00 0.00 89 1006.3
20260509114916 50 145 1.7 2.6 0.00 0.00 0.00 90 1006.2
20260509114418 50 153 1.7 2.6 0.00 0.00 0.00 90 1006.3
20260509113916 49 182 2.6 7.0 0.00 0.00 0.00 90 1006.4
20260509113416 49 170 0.9 1.7 0.00 0.00 0.00 90 1006.3
20260509112917 49 159 0.9 1.7 0.00 0.00 0.00 90 1006.3
20260509112416 49 162 1.7 2.6 0.00 0.00 0.00 91 1006.3
20260509111917 48 182 1.7 2.6 0.00 0.00 0.00 91 1006.2
20260509111416 48 169 1.7 2.6 0.00 0.00 0.00 91 1006.3
20260509110917 48 171 0.9 4.3 0.00 0.01 0.00 90 1006.3
20260509110416 47 174 1.7 2.6 0.00 0.01 0.00 90 1006.3
20260509105917 47 138 0.9 2.6 0.00 0.02 0.00 90 1006.3
20260509105418 46 184 0.9 1.7 0.00 0.02 0.00 90 1006.3
20260509104916 46 187 0.9 1.7 0.00 0.03 0.00 90 1006.3
20260509104418 46 187 1.7 1.7 0.00 0.04 0.00 89 1006.3
20260509103916 45 187 1.7 1.7 0.00 0.04 0.00 89 1006.4
20260509103417 45 187 0.9 1.7 0.00 0.04 0.00 89 1006.5
20260509102917 45 187 0.9 1.7 0.00 0.04 0.00 88 1006.5
20260509102417 45 187 0.0 0.0 0.00 0.04 0.00 88 1006.4
20260509101918 45 187 0.0 0.0 0.00 0.04 0.00 88 1006.4
20260509101418 45 187 0.0 0.0 0.00 0.04 0.00 88 1006.4
20260509100916 44 187 0.0 0.0 0.00 0.04 0.00 87 1006.5
20260509100416 44 187 0.9 1.7 0.00 0.04 0.00 87 1006.5
20260509095917 44 187 0.0 1.7 0.00 0.04 0.00 85 1006.5
20260509095416 44 187 0.0 0.0 0.00 0.04 0.00 85 1006.4
20260509094917 45 187 0.0 0.0 0.00 0.05 0.00 85 1006.5
20260509094418 45 187 0.0 0.0 0.00 0.05 0.00 85 1006.5
20260509093918 45 187 0.0 0.0 0.00 0.05 0.00 85 1006.5
20260509093417 45 187 0.0 0.9 0.00 0.05 0.00 85 1006.5
20260509092918 46 187 0.0 0.0 0.00 0.05 0.00 86 1006.5
20260509092417 46 187 0.9 1.7 0.00 0.05 0.00 86 1006.4
20260509091916 45 181 1.7 2.6 0.00 0.05 0.00 85 1006.4
20260509091417 45 180 0.9 1.7 0.00 0.05 0.00 85 1006.4
20260509090917 45 141 0.9 1.7 0.00 0.05 0.00 85 1006.4
20260509090418 45 141 0.9 0.9 0.00 0.05 0.00 85 1006.4
20260509085917 45 173 0.9 2.6 0.00 0.05 0.00 84 1006.4
20260509085418 45 174 0.9 2.6 0.00 0.05 0.00 84 1006.5
20260509084916 45 170 0.9 1.7 0.00 0.05 0.00 83 1006.5
20260509084417 45 162 1.7 2.6 0.00 0.05 0.00 83 1006.5
20260509083917 45 147 0.9 2.6 0.00 0.05 0.00 82 1006.5
20260509083418 45 161 0.9 2.6 0.00 0.05 0.00 81 1006.6
20260509082918 45 161 0.9 1.7 0.00 0.05 0.00 81 1006.6
20260509082418 45 174 0.9 2.6 0.00 0.05 0.00 81 1006.7
20260509081918 45 187 0.9 1.7 0.00 0.05 0.00 81 1006.7
20260509081416 45 158 0.9 1.7 0.00 0.05 0.00 81 1006.7
20260509080918 45 198 0.9 1.7 0.00 0.05 0.00 80 1006.6
20260509080417 45 159 0.9 2.6 0.00 0.05 0.00 80 1006.7
20260509075917 45 164 0.9 2.6 0.00 0.05 0.00 80 1006.7
20260509075417 45 141 1.7 1.7 0.00 0.05 0.00 80 1006.6
20260509074917 45 156 1.7 2.6 0.00 0.05 0.00 80 1006.7
20260509074418 45 154 1.7 2.6 0.00 0.05 0.00 80 1006.8
20260509073917 44 141 1.7 2.6 0.00 0.05 0.00 81 1006.8
20260509073417 44 136 1.7 2.6 0.00 0.05 0.00 81 1006.8
20260509072918 43 149 1.7 2.6 0.00 0.05 0.00 81 1006.9
20260509072416 43 157 1.7 2.6 0.00 0.05 0.00 81 1007.0
20260509071918 42 146 1.7 2.6 0.00 0.05 0.00 80 1007.0
20260509071418 42 162 0.9 1.7 0.00 0.05 0.00 80 1007.0
20260509070917 42 145 0.0 0.0 0.00 0.05 0.00 80 1007.1
20260509070416 42 145 0.0 0.0 0.00 0.05 0.00 80 1007.2
20260509065916 42 145 0.0 0.0 0.00 0.05 0.00 80 1007.1
20260509065418 42 145 0.0 0.0 0.00 0.05 0.00 81 1007.1
20260509064917 42 145 0.0 0.0 0.00 0.05 0.00 80 1007.2
20260509064416 42 145 0.0 0.0 0.00 0.05 0.00 80 1007.2
20260509063916 42 145 0.0 0.0 0.00 0.05 0.00 80 1007.4
20260509063417 42 145 0.0 0.0 0.00 0.05 0.00 80 1007.5
20260509062916 42 145 0.0 0.0 0.00 0.05 0.00 80 1007.5
20260509062417 43 145 0.0 0.0 0.00 0.05 0.00 80 1007.6
20260509061917 43 145 0.0 0.0 0.00 0.05 0.00 81 1007.7
20260509061417 43 145 0.0 0.0 0.00 0.05 0.00 81 1007.7
20260509060918 44 145 0.0 0.0 0.00 0.05 0.00 81 1007.7
20260509060418 44 145 0.0 0.0 0.00 0.05 0.00 80 1007.8
20260509055916 44 145 0.0 0.0 0.00 0.05 0.00 79 1008.0
20260509055415 44 145 0.0 0.0 0.00 0.05 0.00 78 1008.0
20260509054916 44 145 0.0 0.0 0.00 0.05 0.00 77 1008.1
20260509054417 44 145 0.0 0.0 0.00 0.05 0.00 76 1008.2
20260509053917 45 145 0.0 0.0 0.00 0.05 0.00 75 1008.3
20260509053415 45 145 0.0 0.0 0.00 0.05 0.00 75 1008.3
20260509052917 45 145 0.0 0.0 0.00 0.05 0.00 75 1008.3
20260509052416 45 145 0.0 0.0 0.00 0.05 0.00 74 1008.3
20260509051916 45 145 0.9 1.7 0.00 0.05 0.00 74 1008.3
20260509051416 45 145 0.9 1.7 0.00 0.05 0.00 73 1008.4
20260509050916 45 128 0.9 1.7 0.00 0.05 0.00 73 1008.4
20260509050418 45 152 1.7 2.6 0.00 0.05 0.00 73 1008.5
20260509045916 45 185 2.6 4.3 0.00 0.05 0.00 73 1008.5
20260509045417 45 195 1.7 2.6 0.00 0.05 0.00 73 1008.5
20260509044917 45 178 0.9 1.7 0.00 0.05 0.00 74 1008.5
20260509044415 44 178 1.7 2.6 0.00 0.05 0.00 74 1008.6
20260509043918 44 158 1.7 1.7 0.00 0.05 0.00 75 1008.7
20260509043416 44 162 0.9 1.7 0.00 0.05 0.00 76 1008.7
20260509042917 44 162 0.0 0.0 0.00 0.05 0.00 76 1008.8
20260509042416 44 162 0.9 2.6 0.00 0.05 0.00 75 1008.9
20260509041917 44 162 0.9 1.7 0.00 0.05 0.00 75 1009.0
20260509041418 44 162 0.0 0.0 0.00 0.05 0.00 76 1009.1
20260509040916 43 162 0.9 2.6 0.00 0.05 0.00 76 1009.1
20260509040418 43 162 0.0 1.7 0.00 0.05 0.00 77 1009.0
20260509035917 43 162 0.9 1.7 0.00 0.05 0.05 77 1009.0
20260509035418 43 162 0.9 1.7 0.00 0.05 0.05 77 1009.1
20260509034917 43 162 0.9 1.7 0.00 0.05 0.05 77 1009.1
20260509034416 43 162 1.7 2.6 0.00 0.05 0.05 77 1009.1
20260509033918 43 164 0.9 1.7 0.00 0.05 0.05 77 1009.2
20260509033417 42 150 0.9 1.7 0.00 0.05 0.05 77 1009.2
20260509032918 42 157 0.9 2.6 0.00 0.05 0.05 77 1009.3
20260509032415 42 139 0.9 1.7 0.00 0.05 0.05 77 1009.4
20260509031917 42 139 0.9 1.7 0.00 0.05 0.05 77 1009.3
20260509031416 42 139 0.9 1.7 0.00 0.05 0.05 78 1009.4
20260509030917 42 177 1.7 1.7 0.00 0.05 0.05 78 1009.4
20260509030418 43 188 0.0 2.6 0.00 0.05 0.05 78 1009.5
20260509025917 43 188 0.0 0.0 0.00 0.05 0.05 78 1009.5
20260509025416 43 188 0.0 0.0 0.00 0.05 0.05 78 1009.6
20260509024916 43 188 0.0 0.0 0.00 0.05 0.05 78 1009.6
20260509024416 43 188 0.0 0.0 0.00 0.06 0.05 78 1009.6
20260509023917 43 188 0.0 0.0 0.00 0.06 0.05 77 1009.6
20260509023416 43 188 0.0 0.0 0.00 0.06 0.05 77 1009.6
20260509022918 43 188 0.0 0.0 0.00 0.06 0.05 76 1009.6
20260509022416 43 188 0.0 0.0 0.00 0.06 0.05 76 1009.6
20260509021917 44 188 0.0 0.0 0.00 0.06 0.05 76 1009.6
20260509021418 44 188 0.0 0.0 0.00 0.06 0.05 76 1009.6
20260509020917 44 188 0.0 0.0 0.00 0.06 0.05 76 1009.6
20260509015918 44 188 0.0 0.0 0.00 0.06 0.05 74 1009.5
20260509015418 45 188 0.0 0.0 0.00 0.06 0.05 75 1009.4
20260509014917 45 188 0.0 0.0 0.00 0.06 0.05 75 1009.3
20260509014417 45 188 0.0 0.0 0.00 0.06 0.05 74 1009.3
20260509013917 45 188 0.0 0.0 0.00 0.06 0.05 73 1009.3
20260509013526 45 188 0.0 0.0 0.00 0.06 0.05 71 1009.3
20260509013417 45 188 0.0 0.0 0.00 0.06 0.05 71 1009.3
20260509012957 46 188 0.0 0.0 0.00 0.07 0.05 72 1009.2
20260509012918 46 188 0.0 0.0 0.00 0.07 0.05 72 1009.2
20260509012417 46 188 0.0 0.0 0.00 0.08 0.05 71 1009.1
20260509011916 47 188 0.0 0.0 0.00 0.09 0.05 70 1009.1
20260509011418 47 188 0.0 0.0 0.00 0.09 0.05 70 1009.1
20260509010917 48 188 0.0 0.0 0.00 0.09 0.05 70 1009.1
20260509010416 48 188 0.0 0.0 0.00 0.09 0.05 67 1009.1
20260509005917 48 188 0.0 0.0 0.00 0.10 0.05 63 1009.1
20260509005418 49 188 0.0 0.0 0.00 0.11 0.05 64 1009.1
20260509004922 49 188 0.0 0.0 0.00 0.11 0.05 63 1009.1
20260509004417 50 188 0.0 0.0 0.00 0.11 0.05 60 1009.1
20260509003917 50 188 0.9 1.7 0.00 0.12 0.05 53 1009.1
20260509003417 50 193 0.9 1.7 0.00 0.13 0.05 53 1009.1
20260509002417 51 204 2.6 2.6 0.00 0.13 0.05 53 1009.1
20260509001916 51 194 2.6 4.3 0.00 0.13 0.05 52 1009.1
20260509001417 51 199 2.6 4.3 0.00 0.13 0.05 52 1009.1
20260509000919 52 206 1.7 2.6 0.00 0.13 0.05 52 1009.0
20260509000418 52 213 1.7 2.6 0.00 0.13 0.05 49 1008.9
20260508235917 52 203 1.7 2.6 0.00 0.13 0.05 49 1008.8
20260508235417 52 200 1.7 2.6 0.00 0.13 0.05 48 1008.8
20260508234917 52 212 1.7 2.6 0.00 0.13 0.05 47 1008.7
20260508234417 53 207 2.6 5.2 0.00 0.13 0.05 46 1008.8
20260508233918 53 213 4.3 6.1 0.00 0.14 0.05 46 1008.8
20260508233418 53 206 2.6 5.2 0.00 0.16 0.05 45 1008.8
20260508232917 53 202 1.7 2.6 0.00 0.17 0.05 45 1008.8
20260508232418 54 232 2.6 6.1 0.00 0.19 0.05 44 1008.8
20260508231916 54 209 2.6 4.3 0.00 0.20 0.05 45 1008.8
20260508231417 54 205 4.3 6.1 0.00 0.20 0.05 46 1008.8
20260508230917 54 211 5.2 7.0 0.00 0.20 0.05 45 1008.8
20260508230417 54 209 4.3 7.8 0.00 0.20 0.05 45 1008.8
20260508225918 54 206 6.1 8.7 0.00 0.20 0.05 44 1008.9
20260508225417 55 216 4.3 7.0 0.00 0.20 0.05 45 1008.8
20260508224918 55 195 6.1 7.8 0.00 0.20 0.05 48 1008.7
20260508224416 55 210 4.3 6.1 0.00 0.20 0.05 49 1008.8
20260508223418 55 210 4.3 6.1 0.00 0.20 0.05 49 1008.8
20260508222917 55 195 4.3 8.7 0.00 0.20 0.05 51 1008.9
20260508222417 55 204 5.2 7.0 0.00 0.20 0.05 50 1009.0
20260508221917 55 210 4.3 5.2 0.00 0.20 0.05 50 1009.0
20260508221417 55 232 2.6 5.2 0.00 0.20 0.05 50 1008.9
20260508220916 55 214 4.3 4.3 0.00 0.20 0.05 48 1008.9
20260508220417 56 227 5.2 6.1 0.00 0.20 0.05 46 1008.9
20260508215916 56 228 5.2 7.0 0.00 0.20 0.05 49 1009.0
20260508215417 56 256 5.2 7.0 0.00 0.20 0.05 47 1009.0
20260508214916 56 222 5.2 7.0 0.00 0.20 0.05 48 1009.0
20260508214418 56 216 4.3 6.1 0.00 0.20 0.05 50 1009.0
20260508213918 57 203 5.2 7.8 0.00 0.20 0.05 49 1009.0
20260508213417 57 238 4.3 6.1 0.00 0.20 0.05 50 1009.1